Year,Month,Day,Hour,Minute,Value (Times are PST for temperature in C)
2011,06,30,00,00,12.10
2011,06,30,00,01,12.10
2011,06,30,00,02,12.10
2011,06,30,00,03,12.10
2011,06,30,00,04,12.10
2011,06,30,00,05,12.10
2011,06,30,00,06,12.00
2011,06,30,00,07,12.00
2011,06,30,00,08,12.00
2011,06,30,00,09,12.00
2011,06,30,00,10,12.00
2011,06,30,00,11,12.00
2011,06,30,00,12,11.90
2011,06,30,00,13,11.90
2011,06,30,00,14,11.90
2011,06,30,00,15,12.00
2011,06,30,00,16,12.00
2011,06,30,00,17,12.00
2011,06,30,00,18,12.00
2011,06,30,00,19,12.10
2011,06,30,00,20,12.10
2011,06,30,00,21,12.10
2011,06,30,00,22,12.20
2011,06,30,00,23,12.20
2011,06,30,00,24,12.20
2011,06,30,00,25,12.30
2011,06,30,00,26,12.30
2011,06,30,00,27,12.30
2011,06,30,00,28,12.30
2011,06,30,00,29,12.30
2011,06,30,00,30,12.30
2011,06,30,00,31,12.30
2011,06,30,00,32,12.30
2011,06,30,00,33,12.30
2011,06,30,00,34,12.30
2011,06,30,00,35,12.30
2011,06,30,00,36,12.30
2011,06,30,00,37,12.30
2011,06,30,00,38,12.20
2011,06,30,00,39,12.20
2011,06,30,00,40,12.20
2011,06,30,00,41,12.10
2011,06,30,00,42,12.10
2011,06,30,00,43,12.10
2011,06,30,00,44,12.10
2011,06,30,00,45,12.00
2011,06,30,00,46,12.00
2011,06,30,00,47,12.00
2011,06,30,00,48,12.00
2011,06,30,00,49,12.00
2011,06,30,00,50,12.00
2011,06,30,00,51,12.00
2011,06,30,00,52,12.00
2011,06,30,00,53,12.00
2011,06,30,00,54,12.00
2011,06,30,00,55,12.00
2011,06,30,00,56,12.00
2011,06,30,00,57,12.00
2011,06,30,00,58,12.00
2011,06,30,00,59,11.90
2011,06,30,01,00,11.90
2011,06,30,01,01,11.90
2011,06,30,01,02,11.90
2011,06,30,01,03,11.90
2011,06,30,01,04,11.90
2011,06,30,01,05,11.90
2011,06,30,01,06,11.80
2011,06,30,01,07,11.80
2011,06,30,01,08,11.80
2011,06,30,01,09,11.80
2011,06,30,01,10,11.80
2011,06,30,01,11,11.80
2011,06,30,01,12,11.80
2011,06,30,01,13,11.80
2011,06,30,01,14,11.80
2011,06,30,01,15,11.80
2011,06,30,01,16,11.80
2011,06,30,01,17,11.80
2011,06,30,01,18,11.80
2011,06,30,01,19,11.80
2011,06,30,01,20,11.80
2011,06,30,01,21,11.80
2011,06,30,01,22,11.80
2011,06,30,01,23,11.80
2011,06,30,01,24,11.80
2011,06,30,01,25,11.80
2011,06,30,01,26,11.70
2011,06,30,01,27,11.70
2011,06,30,01,28,11.70
2011,06,30,01,29,11.70
2011,06,30,01,30,11.70
2011,06,30,01,31,11.70
2011,06,30,01,32,11.70
2011,06,30,01,33,11.60
2011,06,30,01,34,11.60
2011,06,30,01,35,11.60
2011,06,30,01,36,11.60
2011,06,30,01,37,11.60
2011,06,30,01,38,11.60
2011,06,30,01,39,11.60
2011,06,30,01,40,11.60
2011,06,30,01,41,11.60
2011,06,30,01,42,11.60
2011,06,30,01,43,11.60
2011,06,30,01,44,11.60
2011,06,30,01,45,11.60
2011,06,30,01,46,11.60
2011,06,30,01,47,11.60
2011,06,30,01,48,11.60
2011,06,30,01,49,11.60
2011,06,30,01,50,11.60
2011,06,30,01,51,11.50
2011,06,30,01,52,11.40
2011,06,30,01,53,11.40
2011,06,30,01,54,11.40
2011,06,30,01,55,11.40
2011,06,30,01,56,11.40
2011,06,30,01,57,11.40
2011,06,30,01,58,11.40
2011,06,30,01,59,11.50
2011,06,30,02,00,11.50
2011,06,30,02,01,11.60
2011,06,30,02,02,11.60
2011,06,30,02,03,11.60
2011,06,30,02,04,11.60
2011,06,30,02,05,11.60
2011,06,30,02,06,11.60
2011,06,30,02,07,11.60
2011,06,30,02,08,11.60
2011,06,30,02,09,11.60
2011,06,30,02,10,11.60
2011,06,30,02,11,11.60
2011,06,30,02,12,11.60
2011,06,30,02,13,11.60
2011,06,30,02,14,11.60
2011,06,30,02,15,11.50
2011,06,30,02,16,11.40
2011,06,30,02,17,11.40
2011,06,30,02,18,11.40
2011,06,30,02,19,11.40
2011,06,30,02,20,11.40
2011,06,30,02,21,11.40
2011,06,30,02,22,11.30
2011,06,30,02,23,11.30
2011,06,30,02,24,11.30
2011,06,30,02,25,11.30
2011,06,30,02,26,11.30
2011,06,30,02,27,11.30
2011,06,30,02,28,11.20
2011,06,30,02,29,11.20
2011,06,30,02,30,11.20
2011,06,30,02,31,11.20
2011,06,30,02,32,11.20
2011,06,30,02,33,11.10
2011,06,30,02,34,11.10
2011,06,30,02,35,11.10
2011,06,30,02,36,11.10
2011,06,30,02,37,11.10
2011,06,30,02,38,11.10
2011,06,30,02,39,11.10
2011,06,30,02,40,11.10
2011,06,30,02,41,11.10
2011,06,30,02,42,11.10
2011,06,30,02,43,11.10
2011,06,30,02,44,11.10
2011,06,30,02,45,11.10
2011,06,30,02,46,11.10
2011,06,30,02,47,11.10
2011,06,30,02,48,11.10
2011,06,30,02,49,11.10
2011,06,30,02,50,11.10
2011,06,30,02,51,11.10
2011,06,30,02,52,11.10
2011,06,30,02,53,11.10
2011,06,30,02,54,11.10
2011,06,30,02,55,11.10
2011,06,30,02,56,11.10
2011,06,30,02,57,11.10
2011,06,30,02,58,11.10
2011,06,30,02,59,11.10
2011,06,30,03,00,11.10
2011,06,30,03,01,11.10
2011,06,30,03,02,11.10
2011,06,30,03,03,11.10
2011,06,30,03,04,11.10
2011,06,30,03,05,11.10
2011,06,30,03,06,11.10
2011,06,30,03,07,11.10
2011,06,30,03,08,11.10
2011,06,30,03,09,11.10
2011,06,30,03,10,11.10
2011,06,30,03,11,11.10
2011,06,30,03,12,11.10
2011,06,30,03,13,11.10
2011,06,30,03,14,11.10
2011,06,30,03,15,11.10
2011,06,30,03,16,11.10
2011,06,30,03,17,11.10
2011,06,30,03,18,11.10
2011,06,30,03,19,11.10
2011,06,30,03,20,11.10
2011,06,30,03,21,11.10
2011,06,30,03,22,11.10
2011,06,30,03,23,11.10
2011,06,30,03,24,11.10
2011,06,30,03,25,11.10
2011,06,30,03,26,11.10
2011,06,30,03,27,11.10
2011,06,30,03,28,11.10
2011,06,30,03,29,11.10
2011,06,30,03,30,11.10
2011,06,30,03,31,11.10
2011,06,30,03,32,11.10
2011,06,30,03,33,11.10
2011,06,30,03,34,11.10
2011,06,30,03,35,11.10
2011,06,30,03,36,11.10
2011,06,30,03,37,11.10
2011,06,30,03,38,11.10
2011,06,30,03,39,11.10
2011,06,30,03,40,11.10
2011,06,30,03,41,11.20
2011,06,30,03,42,11.20
2011,06,30,03,43,11.20
2011,06,30,03,44,11.20
2011,06,30,03,45,11.20
2011,06,30,03,46,11.20
2011,06,30,03,47,11.30
2011,06,30,03,48,11.30
2011,06,30,03,49,11.30
2011,06,30,03,50,11.30
2011,06,30,03,51,11.30
2011,06,30,03,52,11.30
2011,06,30,03,53,11.40
2011,06,30,03,54,11.40
2011,06,30,03,55,11.40
2011,06,30,03,56,11.40
2011,06,30,03,57,11.40
2011,06,30,03,58,11.40
2011,06,30,03,59,11.40
2011,06,30,04,00,11.40
2011,06,30,04,01,11.40
2011,06,30,04,02,11.40
2011,06,30,04,03,11.40
2011,06,30,04,04,11.40
2011,06,30,04,05,11.40
2011,06,30,04,06,11.40
2011,06,30,04,07,11.40
2011,06,30,04,08,11.40
2011,06,30,04,09,11.40
2011,06,30,04,10,11.40
2011,06,30,04,11,11.40
2011,06,30,04,12,11.40
2011,06,30,04,13,11.40
2011,06,30,04,14,11.40
2011,06,30,04,15,11.40
2011,06,30,04,16,11.40
2011,06,30,04,17,11.40
2011,06,30,04,18,11.40
2011,06,30,04,19,11.40
2011,06,30,04,20,11.40
2011,06,30,04,21,11.40
2011,06,30,04,22,11.40
2011,06,30,04,23,11.40
2011,06,30,04,24,11.40
2011,06,30,04,25,11.40
2011,06,30,04,26,11.40
2011,06,30,04,27,11.40
2011,06,30,04,28,11.40
2011,06,30,04,29,11.40
2011,06,30,04,30,11.40
2011,06,30,04,31,11.40
2011,06,30,04,32,11.40
2011,06,30,04,33,11.40
2011,06,30,04,34,11.40
2011,06,30,04,35,11.40
2011,06,30,04,36,11.40
2011,06,30,04,37,11.40
2011,06,30,04,38,11.40
2011,06,30,04,39,11.40
2011,06,30,04,40,11.40
2011,06,30,04,41,11.40
2011,06,30,04,42,11.40
2011,06,30,04,43,11.40
2011,06,30,04,44,11.40
2011,06,30,04,45,11.40
2011,06,30,04,46,11.40
2011,06,30,04,47,11.40
2011,06,30,04,48,11.40
2011,06,30,04,49,11.40
2011,06,30,04,50,11.30
2011,06,30,04,51,11.30
2011,06,30,04,52,11.30
2011,06,30,04,53,11.30
2011,06,30,04,54,11.30
2011,06,30,04,55,11.30
2011,06,30,04,56,11.30
2011,06,30,04,57,11.30
2011,06,30,04,58,11.30
2011,06,30,04,59,11.30
2011,06,30,05,00,11.30
2011,06,30,05,01,11.30
2011,06,30,05,02,11.30
2011,06,30,05,03,11.30
2011,06,30,05,04,11.30
2011,06,30,05,05,11.30
2011,06,30,05,06,11.30
2011,06,30,05,07,11.30
2011,06,30,05,08,11.20
2011,06,30,05,09,11.20
2011,06,30,05,10,11.20
2011,06,30,05,11,11.20
2011,06,30,05,12,11.20
2011,06,30,05,13,11.20
2011,06,30,05,14,11.20
2011,06,30,05,15,11.20
2011,06,30,05,16,11.20
2011,06,30,05,17,11.20
2011,06,30,05,18,11.20
2011,06,30,05,19,11.20
2011,06,30,05,20,11.20
2011,06,30,05,21,11.20
2011,06,30,05,22,11.20
2011,06,30,05,23,11.20
2011,06,30,05,24,11.20
2011,06,30,05,25,11.20
2011,06,30,05,26,11.20
2011,06,30,05,27,11.20
2011,06,30,05,28,11.20
2011,06,30,05,29,11.20
2011,06,30,05,30,11.10
2011,06,30,05,31,11.10
2011,06,30,05,32,11.10
2011,06,30,05,33,11.10
2011,06,30,05,34,11.10
2011,06,30,05,35,11.10
2011,06,30,05,36,11.10
2011,06,30,05,37,11.10
2011,06,30,05,38,11.10
2011,06,30,05,39,11.10
2011,06,30,05,40,11.10
2011,06,30,05,41,11.10
2011,06,30,05,42,11.10
2011,06,30,05,43,11.10
2011,06,30,05,44,11.10
2011,06,30,05,45,11.10
2011,06,30,05,46,11.10
2011,06,30,05,47,11.10
2011,06,30,05,48,11.10
2011,06,30,05,49,11.10
2011,06,30,05,50,11.10
2011,06,30,05,51,11.10
2011,06,30,05,52,11.10
2011,06,30,05,53,11.10
2011,06,30,05,54,11.10
2011,06,30,05,55,11.10
2011,06,30,05,56,11.10
2011,06,30,05,57,11.10
2011,06,30,05,58,11.10
2011,06,30,05,59,11.10
2011,06,30,06,00,11.10
2011,06,30,06,01,11.10
2011,06,30,06,02,11.10
2011,06,30,06,03,11.10
2011,06,30,06,04,11.10
2011,06,30,06,05,11.10
2011,06,30,06,06,11.10
2011,06,30,06,07,11.10
2011,06,30,06,08,11.10
2011,06,30,06,09,11.10
2011,06,30,06,10,11.10
2011,06,30,06,11,11.10
2011,06,30,06,12,11.10
2011,06,30,06,13,11.20
2011,06,30,06,14,11.20
2011,06,30,06,15,11.20
2011,06,30,06,16,11.20
2011,06,30,06,17,11.20
2011,06,30,06,18,11.30
2011,06,30,06,19,11.30
2011,06,30,06,20,11.30
2011,06,30,06,21,11.30
2011,06,30,06,22,11.40
2011,06,30,06,23,11.40
2011,06,30,06,24,11.40
2011,06,30,06,25,11.40
2011,06,30,06,26,11.50
2011,06,30,06,27,11.60
2011,06,30,06,28,11.60
2011,06,30,06,29,11.60
2011,06,30,06,30,11.60
2011,06,30,06,31,11.60
2011,06,30,06,32,11.60
2011,06,30,06,33,11.60
2011,06,30,06,34,11.60
2011,06,30,06,35,11.60
2011,06,30,06,36,11.60
2011,06,30,06,37,11.60
2011,06,30,06,38,11.60
2011,06,30,06,39,11.60
2011,06,30,06,40,11.60
2011,06,30,06,41,11.60
2011,06,30,06,42,11.50
2011,06,30,06,43,11.40
2011,06,30,06,44,11.40
2011,06,30,06,45,11.40
2011,06,30,06,46,11.50
2011,06,30,06,47,11.60
2011,06,30,06,48,11.60
2011,06,30,06,49,11.60
2011,06,30,06,50,11.60
2011,06,30,06,51,11.60
2011,06,30,06,52,11.70
2011,06,30,06,53,11.70
2011,06,30,06,54,11.70
2011,06,30,06,55,11.80
2011,06,30,06,56,11.80
2011,06,30,06,57,11.80
2011,06,30,06,58,11.80
2011,06,30,06,59,11.80
2011,06,30,07,00,11.70
2011,06,30,07,01,11.70
2011,06,30,07,02,11.70
2011,06,30,07,03,11.70
2011,06,30,07,04,11.70
2011,06,30,07,05,11.70
2011,06,30,07,06,11.70
2011,06,30,07,07,11.70
2011,06,30,07,08,11.70
2011,06,30,07,09,11.70
2011,06,30,07,10,11.70
2011,06,30,07,11,11.70
2011,06,30,07,12,11.70
2011,06,30,07,13,11.70
2011,06,30,07,14,11.70
2011,06,30,07,15,11.70
2011,06,30,07,16,11.70
2011,06,30,07,17,11.70
2011,06,30,07,18,11.80
2011,06,30,07,19,11.70
2011,06,30,07,20,11.70
2011,06,30,07,21,11.80
2011,06,30,07,22,11.80
2011,06,30,07,23,11.80
2011,06,30,07,24,11.80
2011,06,30,07,25,11.80
2011,06,30,07,26,11.80
2011,06,30,07,27,11.80
2011,06,30,07,28,11.80
2011,06,30,07,29,11.80
2011,06,30,07,30,11.80
2011,06,30,07,31,11.90
2011,06,30,07,32,11.90
2011,06,30,07,33,11.90
2011,06,30,07,34,12.00
2011,06,30,07,35,12.00
2011,06,30,07,36,12.00
2011,06,30,07,37,12.10
2011,06,30,07,38,12.10
2011,06,30,07,39,12.10
2011,06,30,07,40,12.10
2011,06,30,07,41,12.10
2011,06,30,07,42,12.20
2011,06,30,07,43,12.20
2011,06,30,07,44,12.20
2011,06,30,07,45,12.20
2011,06,30,07,46,12.30
2011,06,30,07,47,12.30
2011,06,30,07,48,12.30
2011,06,30,07,49,12.30
2011,06,30,07,50,12.40
2011,06,30,07,51,12.40
2011,06,30,07,52,12.50
2011,06,30,07,53,12.50
2011,06,30,07,54,12.60
2011,06,30,07,55,12.60
2011,06,30,07,56,12.60
2011,06,30,07,57,12.60
2011,06,30,07,58,12.60
2011,06,30,07,59,12.60
2011,06,30,08,00,12.60
2011,06,30,08,01,12.60
2011,06,30,08,02,12.60
2011,06,30,08,03,12.60
2011,06,30,08,04,12.60
2011,06,30,08,05,12.60
2011,06,30,08,06,12.60
2011,06,30,08,07,12.50
2011,06,30,08,08,12.50
2011,06,30,08,09,12.40
2011,06,30,08,10,12.40
2011,06,30,08,11,12.40
2011,06,30,08,12,12.40
2011,06,30,08,13,12.40
2011,06,30,08,14,12.40
2011,06,30,08,15,12.30
2011,06,30,08,16,12.40
2011,06,30,08,17,12.40
2011,06,30,08,18,12.50
2011,06,30,08,19,12.50
2011,06,30,08,20,12.50
2011,06,30,08,21,12.60
2011,06,30,08,22,12.60
2011,06,30,08,23,12.70
2011,06,30,08,24,12.70
2011,06,30,08,25,12.70
2011,06,30,08,26,12.70
2011,06,30,08,27,12.70
2011,06,30,08,28,12.70
2011,06,30,08,29,12.70
2011,06,30,08,30,12.60
2011,06,30,08,31,12.50
2011,06,30,08,32,12.50
2011,06,30,08,33,12.50
2011,06,30,08,34,12.50
2011,06,30,08,35,12.50
2011,06,30,08,36,12.60
2011,06,30,08,37,12.60
2011,06,30,08,38,12.60
2011,06,30,08,39,12.60
2011,06,30,08,40,12.70
2011,06,30,08,41,12.80
2011,06,30,08,42,12.80
2011,06,30,08,43,12.80
2011,06,30,08,44,12.80
2011,06,30,08,45,12.80
2011,06,30,08,46,12.80
2011,06,30,08,47,12.80
2011,06,30,08,48,12.80
2011,06,30,08,49,12.80
2011,06,30,08,50,12.80
2011,06,30,08,51,12.80
2011,06,30,08,52,12.80
2011,06,30,08,53,12.80
2011,06,30,08,54,12.80
2011,06,30,08,55,12.80
2011,06,30,08,56,12.80
2011,06,30,08,57,12.80
2011,06,30,08,58,12.80
2011,06,30,08,59,12.80
2011,06,30,09,00,12.80
2011,06,30,09,01,12.80
2011,06,30,09,02,12.80
2011,06,30,09,03,12.80
2011,06,30,09,04,12.90
2011,06,30,09,05,12.90
2011,06,30,09,06,12.90
2011,06,30,09,07,12.90
2011,06,30,09,08,13.00
2011,06,30,09,09,13.00
2011,06,30,09,10,13.00
2011,06,30,09,11,13.10
2011,06,30,09,12,13.10
2011,06,30,09,13,13.10
2011,06,30,09,14,13.10
2011,06,30,09,15,13.20
2011,06,30,09,16,13.20
2011,06,30,09,17,13.20
2011,06,30,09,18,13.30
2011,06,30,09,19,13.40
2011,06,30,09,20,13.50
2011,06,30,09,21,13.50
2011,06,30,09,22,13.60
2011,06,30,09,23,13.60
2011,06,30,09,24,13.70
2011,06,30,09,25,13.70
2011,06,30,09,26,13.80
2011,06,30,09,27,13.90
2011,06,30,09,28,13.90
2011,06,30,09,29,13.90
2011,06,30,09,30,13.90
2011,06,30,09,31,13.80
2011,06,30,09,32,13.80
2011,06,30,09,33,13.80
2011,06,30,09,34,13.80
2011,06,30,09,35,13.90
2011,06,30,09,36,13.90
2011,06,30,09,37,14.00
2011,06,30,09,38,14.00
2011,06,30,09,39,14.00
2011,06,30,09,40,14.00
2011,06,30,09,41,14.00
2011,06,30,09,42,13.90
2011,06,30,09,43,13.80
2011,06,30,09,44,13.80
2011,06,30,09,45,13.70
2011,06,30,09,46,13.70
2011,06,30,09,47,13.70
2011,06,30,09,48,13.70
2011,06,30,09,49,13.80
2011,06,30,09,50,13.90
2011,06,30,09,51,13.90
2011,06,30,09,52,14.00
2011,06,30,09,53,14.10
2011,06,30,09,54,14.10
2011,06,30,09,55,14.10
2011,06,30,09,56,14.00
2011,06,30,09,57,14.10
2011,06,30,09,58,14.10
2011,06,30,09,59,14.20
2011,06,30,10,00,14.20
2011,06,30,10,01,14.20
2011,06,30,10,02,14.20
2011,06,30,10,03,14.20
2011,06,30,10,04,14.20
2011,06,30,10,05,14.10
2011,06,30,10,06,14.10
2011,06,30,10,07,14.00
2011,06,30,10,08,13.90
2011,06,30,10,09,14.00
2011,06,30,10,10,14.00
2011,06,30,10,11,14.00
2011,06,30,10,12,14.00
2011,06,30,10,13,14.00
2011,06,30,10,14,14.00
2011,06,30,10,15,13.90
2011,06,30,10,16,13.90
2011,06,30,10,17,13.90
2011,06,30,10,18,13.90
2011,06,30,10,19,13.90
2011,06,30,10,20,13.90
2011,06,30,10,21,14.00
2011,06,30,10,22,14.00
2011,06,30,10,23,14.00
2011,06,30,10,24,14.10
2011,06,30,10,25,14.20
2011,06,30,10,26,14.40
2011,06,30,10,27,14.40
2011,06,30,10,28,14.50
2011,06,30,10,29,14.50
2011,06,30,10,30,14.60
2011,06,30,10,31,14.70
2011,06,30,10,32,14.70
2011,06,30,10,33,14.70
2011,06,30,10,34,14.70
2011,06,30,10,35,14.70
2011,06,30,10,36,14.70
2011,06,30,10,37,14.80
2011,06,30,10,38,14.80
2011,06,30,10,39,14.80
2011,06,30,10,40,14.80
2011,06,30,10,41,14.80
2011,06,30,10,42,14.90
2011,06,30,10,43,14.90
2011,06,30,10,44,14.90
2011,06,30,10,45,14.90
2011,06,30,10,46,14.80
2011,06,30,10,47,14.80
2011,06,30,10,48,14.80
2011,06,30,10,49,14.80
2011,06,30,10,50,14.80
2011,06,30,10,51,14.90
2011,06,30,10,52,15.00
2011,06,30,10,53,15.00
2011,06,30,10,54,15.00
2011,06,30,10,55,15.00
2011,06,30,10,56,15.00
2011,06,30,10,57,15.10
2011,06,30,10,58,15.10
2011,06,30,10,59,15.20
2011,06,30,11,00,15.20
2011,06,30,11,01,15.30
2011,06,30,11,02,15.30
2011,06,30,11,03,15.30
2011,06,30,11,04,15.30
2011,06,30,11,05,15.30
2011,06,30,11,06,15.30
2011,06,30,11,07,15.30
2011,06,30,11,08,15.20
2011,06,30,11,09,15.20
2011,06,30,11,10,15.30
2011,06,30,11,11,15.30
2011,06,30,11,12,15.50
2011,06,30,11,13,15.60
2011,06,30,11,14,15.70
2011,06,30,11,15,15.70
2011,06,30,11,16,15.70
2011,06,30,11,17,15.70
2011,06,30,11,18,15.60
2011,06,30,11,19,15.70
2011,06,30,11,20,15.70
2011,06,30,11,21,15.70
2011,06,30,11,22,15.70
2011,06,30,11,23,15.70
2011,06,30,11,24,15.70
2011,06,30,11,25,15.70
2011,06,30,11,26,15.80
2011,06,30,11,27,15.80
2011,06,30,11,28,15.80
2011,06,30,11,29,15.80
2011,06,30,11,30,15.80
2011,06,30,11,31,15.80
2011,06,30,11,32,15.80
2011,06,30,11,33,15.60
2011,06,30,11,34,15.60
2011,06,30,11,35,15.50
2011,06,30,11,36,15.50
2011,06,30,11,37,15.60
2011,06,30,11,38,15.50
2011,06,30,11,39,15.50
2011,06,30,11,40,15.50
2011,06,30,11,41,15.50
2011,06,30,11,42,15.40
2011,06,30,11,43,15.40
2011,06,30,11,44,15.40
2011,06,30,11,45,15.50
2011,06,30,11,46,15.50
2011,06,30,11,47,15.60
2011,06,30,11,48,15.60
2011,06,30,11,49,15.60
2011,06,30,11,50,15.60
2011,06,30,11,51,15.60
2011,06,30,11,52,15.70
2011,06,30,11,53,15.70
2011,06,30,11,54,15.80
2011,06,30,11,55,15.80
2011,06,30,11,56,15.80
2011,06,30,11,57,15.80
2011,06,30,11,58,15.80
2011,06,30,11,59,15.80
2011,06,30,12,00,15.80
2011,06,30,12,01,15.60
2011,06,30,12,02,15.60
2011,06,30,12,03,15.50
2011,06,30,12,04,15.30
2011,06,30,12,05,15.30
2011,06,30,12,06,15.30
2011,06,30,12,07,15.30
2011,06,30,12,08,15.10
2011,06,30,12,09,15.00
2011,06,30,12,10,14.90
2011,06,30,12,11,14.90
2011,06,30,12,12,14.90
2011,06,30,12,13,14.80
2011,06,30,12,14,14.80
2011,06,30,12,15,14.80
2011,06,30,12,16,14.80
2011,06,30,12,17,14.80
2011,06,30,12,18,14.80
2011,06,30,12,19,14.80
2011,06,30,12,20,14.70
2011,06,30,12,21,14.60
2011,06,30,12,22,14.60
2011,06,30,12,23,14.50
2011,06,30,12,24,14.30
2011,06,30,12,25,14.20
2011,06,30,12,26,14.20
2011,06,30,12,27,14.20
2011,06,30,12,28,14.20
2011,06,30,12,29,14.10
2011,06,30,12,30,14.00
2011,06,30,12,31,13.90
2011,06,30,12,32,13.90
2011,06,30,12,33,14.00
2011,06,30,12,34,14.00
2011,06,30,12,35,13.90
2011,06,30,12,36,13.90
2011,06,30,12,37,13.90
2011,06,30,12,38,13.90
2011,06,30,12,39,13.90
2011,06,30,12,40,13.80
2011,06,30,12,41,13.80
2011,06,30,12,42,13.60
2011,06,30,12,43,13.60
2011,06,30,12,44,13.60
2011,06,30,12,45,13.70
2011,06,30,12,46,13.80
2011,06,30,12,47,13.80
2011,06,30,12,48,13.80
2011,06,30,12,49,13.70
2011,06,30,12,50,13.70
2011,06,30,12,51,13.70
2011,06,30,12,52,13.80
2011,06,30,12,53,13.80
2011,06,30,12,54,13.80
2011,06,30,12,55,13.80
2011,06,30,12,56,13.80
2011,06,30,12,57,13.70
2011,06,30,12,58,13.70
2011,06,30,12,59,13.60
2011,06,30,13,00,13.60
2011,06,30,13,01,13.60
2011,06,30,13,02,13.70
2011,06,30,13,03,13.70
2011,06,30,13,04,13.70
2011,06,30,13,05,13.80
2011,06,30,13,06,13.80
2011,06,30,13,07,13.90
2011,06,30,13,08,13.90
2011,06,30,13,09,13.90
2011,06,30,13,10,14.00
2011,06,30,13,11,14.00
2011,06,30,13,12,14.00
2011,06,30,13,13,14.00
2011,06,30,13,14,13.80
2011,06,30,13,15,13.70
2011,06,30,13,16,13.60
2011,06,30,13,17,13.50
2011,06,30,13,18,13.50
2011,06,30,13,19,13.50
2011,06,30,13,20,13.50
2011,06,30,13,21,13.50
2011,06,30,13,22,13.60
2011,06,30,13,23,13.60
2011,06,30,13,24,13.60
2011,06,30,13,25,13.60
2011,06,30,13,26,13.50
2011,06,30,13,27,13.50
2011,06,30,13,28,13.40
2011,06,30,13,29,13.30
2011,06,30,13,30,13.20
2011,06,30,13,31,13.10
2011,06,30,13,32,13.10
2011,06,30,13,33,13.00
2011,06,30,13,34,13.00
2011,06,30,13,35,13.10
2011,06,30,13,36,13.10
2011,06,30,13,37,13.20
2011,06,30,13,38,13.30
2011,06,30,13,39,13.30
2011,06,30,13,40,13.40
2011,06,30,13,41,13.40
2011,06,30,13,42,13.50
2011,06,30,13,43,13.50
2011,06,30,13,44,13.60
2011,06,30,13,45,13.60
2011,06,30,13,46,13.50
2011,06,30,13,47,13.40
2011,06,30,13,48,13.40
2011,06,30,13,49,13.30
2011,06,30,13,50,13.40
2011,06,30,13,51,13.50
2011,06,30,13,52,13.50
2011,06,30,13,53,13.60
2011,06,30,13,54,13.60
2011,06,30,13,55,13.60
2011,06,30,13,56,13.60
2011,06,30,13,57,13.60
2011,06,30,13,58,13.60
2011,06,30,13,59,13.50
2011,06,30,14,00,13.50
2011,06,30,14,01,13.40
2011,06,30,14,02,13.40
2011,06,30,14,03,13.40
2011,06,30,14,04,13.30
2011,06,30,14,05,13.40
2011,06,30,14,06,13.40
2011,06,30,14,07,13.30
2011,06,30,14,08,13.40
2011,06,30,14,09,13.40
2011,06,30,14,10,13.30
2011,06,30,14,11,13.30
2011,06,30,14,12,13.30
2011,06,30,14,13,13.30
2011,06,30,14,14,13.30
2011,06,30,14,15,13.30
2011,06,30,14,16,13.30
2011,06,30,14,17,13.30
2011,06,30,14,18,13.30
2011,06,30,14,19,13.20
2011,06,30,14,20,13.20
2011,06,30,14,21,13.30
2011,06,30,14,22,13.30
2011,06,30,14,23,13.30
2011,06,30,14,24,13.30
2011,06,30,14,25,13.30
2011,06,30,14,26,13.40
2011,06,30,14,27,13.50
2011,06,30,14,28,13.60
2011,06,30,14,29,13.70
2011,06,30,14,30,13.70
2011,06,30,14,31,13.70
2011,06,30,14,32,13.70
2011,06,30,14,33,13.70
2011,06,30,14,34,13.70
2011,06,30,14,35,13.70
2011,06,30,14,36,13.70
2011,06,30,14,37,13.70
2011,06,30,14,38,13.80
2011,06,30,14,39,13.90
2011,06,30,14,40,14.00
2011,06,30,14,41,14.10
2011,06,30,14,42,14.20
2011,06,30,14,43,14.40
2011,06,30,14,44,14.50
2011,06,30,14,45,14.50
2011,06,30,14,46,14.50
2011,06,30,14,47,14.40
2011,06,30,14,48,14.20
2011,06,30,14,49,14.20
2011,06,30,14,50,14.10
2011,06,30,14,51,14.00
2011,06,30,14,52,14.10
2011,06,30,14,53,14.30
2011,06,30,14,54,14.50
2011,06,30,14,55,14.60
2011,06,30,14,56,14.80
2011,06,30,14,57,14.90
2011,06,30,14,58,15.10
2011,06,30,14,59,15.20
2011,06,30,15,00,15.30
2011,06,30,15,01,15.30
2011,06,30,15,02,15.30
2011,06,30,15,03,15.30
2011,06,30,15,04,15.20
2011,06,30,15,05,15.10
2011,06,30,15,06,15.10
2011,06,30,15,07,15.10
2011,06,30,15,08,15.20
2011,06,30,15,09,15.20
2011,06,30,15,10,15.20
2011,06,30,15,11,15.10
2011,06,30,15,12,15.00
2011,06,30,15,13,15.00
2011,06,30,15,14,14.80
2011,06,30,15,15,14.70
2011,06,30,15,16,14.50
2011,06,30,15,17,14.40
2011,06,30,15,18,14.50
2011,06,30,15,19,14.50
2011,06,30,15,20,14.70
2011,06,30,15,21,14.80
2011,06,30,15,22,15.00
2011,06,30,15,23,15.20
2011,06,30,15,24,15.20
2011,06,30,15,25,15.20
2011,06,30,15,26,15.10
2011,06,30,15,27,15.00
2011,06,30,15,28,14.90
2011,06,30,15,29,14.70
2011,06,30,15,30,14.60
2011,06,30,15,31,14.50
2011,06,30,15,32,14.50
2011,06,30,15,33,14.40
2011,06,30,15,34,14.60
2011,06,30,15,35,14.90
2011,06,30,15,36,15.00
2011,06,30,15,37,15.20
2011,06,30,15,38,15.40
2011,06,30,15,39,15.60
2011,06,30,15,40,15.80
2011,06,30,15,41,15.90
2011,06,30,15,42,15.80
2011,06,30,15,43,15.80
2011,06,30,15,44,15.90
2011,06,30,15,45,16.10
2011,06,30,15,46,16.10
2011,06,30,15,47,16.20
2011,06,30,15,48,16.20
2011,06,30,15,49,16.30
2011,06,30,15,50,16.40
2011,06,30,15,51,16.30
2011,06,30,15,52,16.30
2011,06,30,15,53,16.30
2011,06,30,15,54,16.20
2011,06,30,15,55,16.20
2011,06,30,15,56,16.20
2011,06,30,15,57,16.30
2011,06,30,15,58,16.30
2011,06,30,15,59,16.30
2011,06,30,16,00,16.40
2011,06,30,16,01,16.40
2011,06,30,16,02,16.40
2011,06,30,16,03,16.40
2011,06,30,16,04,16.40
2011,06,30,16,05,16.40
2011,06,30,16,06,16.40
2011,06,30,16,07,16.40
2011,06,30,16,08,16.30
2011,06,30,16,09,16.30
2011,06,30,16,10,16.30
2011,06,30,16,11,16.40
2011,06,30,16,12,16.60
2011,06,30,16,13,16.70
2011,06,30,16,14,16.80
2011,06,30,16,15,16.80
2011,06,30,16,16,16.70
2011,06,30,16,17,16.60
2011,06,30,16,18,16.50
2011,06,30,16,19,16.40
2011,06,30,16,20,16.40
2011,06,30,16,21,16.60
2011,06,30,16,22,16.50
2011,06,30,16,23,16.50
2011,06,30,16,24,16.60
2011,06,30,16,25,16.50
2011,06,30,16,26,16.40
2011,06,30,16,27,16.40
2011,06,30,16,28,16.40
2011,06,30,16,29,16.40
2011,06,30,16,30,16.30
2011,06,30,16,31,16.40
2011,06,30,16,32,16.40
2011,06,30,16,33,16.40
2011,06,30,16,34,16.40
2011,06,30,16,35,16.40
2011,06,30,16,36,16.30
2011,06,30,16,37,16.30
2011,06,30,16,38,16.40
2011,06,30,16,39,16.30
2011,06,30,16,40,16.30
2011,06,30,16,41,16.30
2011,06,30,16,42,16.20
2011,06,30,16,43,16.20
2011,06,30,16,44,16.30
2011,06,30,16,45,16.20
2011,06,30,16,46,16.30
2011,06,30,16,47,16.30
2011,06,30,16,48,16.30
2011,06,30,16,49,16.30
2011,06,30,16,50,16.30
2011,06,30,16,51,16.30
2011,06,30,16,52,16.40
2011,06,30,16,53,16.40
2011,06,30,16,54,16.40
2011,06,30,16,55,16.40
2011,06,30,16,56,16.50
2011,06,30,16,57,16.60
2011,06,30,16,58,16.70
2011,06,30,16,59,16.70
2011,06,30,17,00,16.70
2011,06,30,17,01,16.70
2011,06,30,17,02,16.70
2011,06,30,17,03,16.70
2011,06,30,17,04,16.70
2011,06,30,17,05,16.70
2011,06,30,17,06,16.80
2011,06,30,17,07,16.80
2011,06,30,17,08,16.90
2011,06,30,17,09,16.90
2011,06,30,17,10,16.80
2011,06,30,17,11,16.70
2011,06,30,17,12,16.70
2011,06,30,17,13,16.70
2011,06,30,17,14,16.70
2011,06,30,17,15,16.70
2011,06,30,17,16,16.70
2011,06,30,17,17,16.70
2011,06,30,17,18,16.60
2011,06,30,17,19,16.60